Regional Weather Roundup
Issued by NWS Newport/Morehead, NC

Current Version | Previous Version | Text Only | Print | Product List | Glossary On
Versions: 1 2 3 4 5 6 7 8 9 10 11 12 13 14 15 16 17 18 19 20 21 22 23 24 25 26 27 28 29 30 31 32 33 34 35 36 37 38 39 40 41 42 43 44 45 46 47 48 49 50
000 ASUS42 KMHX 120025 RWRMHX WEATHER ROUNDUP FOR EASTERN NORTH CAROLINA NATIONAL WEATHER SERVICE NEWPORT/MOREHEAD CITY NC 700 PM EST MON DEC 11 2017 NOTE: "FAIR" INDICATES FEW OR NO CLOUDS BELOW 12,000 FEET WITH NO SIGNIFICANT WEATHER AND/OR OBSTRUCTIONS TO VISIBILITY NCZ015>017-031-032-045>047-102-103-120100- NORTH COAST CITY SKY/WX TMP DP RH WIND PRES REMARKS EDENTON CLEAR 38 35 88 CALM 30.04S ELIZABETH CITY CLEAR 39 34 82 SE5 30.04R KITTY HAWK CLEAR 40 32 71 CALM 30.03S MANTEO CLEAR 36 33 88 CALM 30.05S $$ NCZ045>047-081-094-103-104-120100- CENTRAL COAST CITY SKY/WX TMP DP RH WIND PRES REMARKS FRISCO CLEAR 37 34 89 CALM 30.04F $$ NCZ095-097-098-100-101-120100- SOUTHERN COAST CITY SKY/WX TMP DP RH WIND PRES REMARKS BEAUFORT CLEAR 39 36 89 CALM 30.04S CEDAR ISLAND NOT AVBL JACKSONVILLE CLEAR 38 36 92 S3 30.04S PINEY ISLAND N/A N/A N/A N/A SE5 30.04S WILMINGTON CLEAR 39 32 76 CALM 30.05R $$ NCZ011>013-027>030-043-044-078>080-089-090>093-098-120100- COASTAL PLAIN CITY SKY/WX TMP DP RH WIND PRES REMARKS AHOSKIE CLEAR 34 33 94 CALM 30.02S CLINTON CLEAR 38 33 80 CALM 30.05R ELIZABETHTOWN NOT AVBL GOLDSBORO CLEAR 40 32 71 CALM 30.02R GREENVILLE CLEAR 36 32 87 CALM 30.05R HAVELOCK CLEAR 38 50 100 CALM 30.05S KENANSVILLE CLEAR 34 30 86 CALM 30.04R KINSTON CLEAR 36 32 87 CALM 30.04R NEW BERN CLEAR 35 34 96 CALM 30.04S RICHLANDS CLEAR 38 34 85 S5 30.05R ROCKY MOUNT CLEAR 36 34 92 S5 30.01F WASHINGTON CLEAR 39 36 87 CALM 30.04R WHITEVILLE CLEAR 41 35 79 CALM 30.06R $$ AMZ130-135-150-152-154-156-158-170-250-252-270-ANZ085-086-088-633-658-670-120100- MARINE OBSERVATIONS STATION/POSITION TIME TEMP WIND PRES WAVE SWELL AIR SEA DIR/SP/G HT/PER HT/PER (UTC) (F) (DEG/KT/KT) (MB) (FT/S) (FT/S) CHESAPEAKE LIGHT NOT AVBL 64 E VA BEACH 2350 48 60 210/ 4/ 6 1017.6 2/ 8 2/ 8 DUCK 0000 47 54 160/ 5/ 6 1016.7 2 E DUCK 0000 54 N/A 1/ 9 OREGON INLET 0000 44 45 140/ 2/ 3 1017.0 13E OREGON INLT 2348 56 N/A 2/ 8 2/ 8 HATTERAS CG 0000 45 53 80/ 1/ 3 1017.0 DIAMOND BUOY 0010 53 75 340/ 2/ 6 1017.4 CAPE LOOKOUT 0000 190/ 4/ 5 1017.6 BEAUFORT LAB 0000 46 51 120/ 1/ 1 1017.1 30 SE NEW RVR IN 0008 54 68 200/ 4/ 8 1017.4 30 SE NEW RVR IN 0000 68 N/A 3/ 8 27 SE WRIGHTSVLE 0008 53 66 240/ 4/ 10 1017.5 5 SE WRIGHTSVLE 0008 51 58 220/ 4/ 6 1017.1 225 S CAPE HAT 2350 66 76 240/ 10/ 14 1018.5 4/ 8 3/ 8 41 SE CHARLESTON 0010 74 260/ 14/ 17 1018.3 $$

USA.gov is the U.S. government's official web portal to all federal, state and local government web resources and services.